�N����,����,�~����,�C��,���x,�C��,����,���ϕ���,�ő�u�ԕ���,�ő厞����,���˗�,�I�_���x,�n�����x,�ő啗���N��,DTYPE
"17/08/01","00:10",0.0,26.9,84.0,1002.9,279.8,0.8,1.2,255.1,0.00,24.0,26.9,"00:03:44",1
"17/08/01","00:20",0.0,26.7,84.9,1002.9,311.9,1.3,2.4,329.1,0.00,24.0,26.9,"00:15:28",1
"17/08/01","00:30",0.0,26.7,85.4,1002.9,331.6,1.5,2.7,338.4,0.00,24.1,27.0,"00:23:20",1
"17/08/01","00:40",0.0,26.6,86.1,1002.6,338.3,1.3,2.4,340.2,0.00,24.1,26.6,"00:36:48",1
"17/08/01","00:50",0.0,26.4,86.5,1002.6,340.8,1.1,1.9,348.0,0.00,24.0,26.6,"00:42:08",1
"17/08/01","01:00",0.0,26.3,87.5,1002.9,348.9,1.1,1.9,347.3,0.00,24.1,26.6,"00:59:44",1
"17/08/01","01:10",0.0,26.2,87.4,1002.6,349.4,1.1,1.8,338.7,0.00,24.0,26.9,"01:08:32",1
"17/08/01","01:20",0.0,26.1,88.1,1002.9,334.1,1.3,2.2,340.8,0.00,24.0,26.7,"01:12:24",1
"17/08/01","01:30",0.0,26.3,88.5,1002.6,321.8,1.6,2.6,339.0,0.00,24.3,26.7,"01:23:12",1
"17/08/01","01:40",0.0,26.3,88.5,1003.1,324.4,1.6,2.5,324.1,0.00,24.3,26.7,"01:38:00",1
"17/08/01","01:50",0.0,26.4,88.6,1002.6,328.3,1.7,2.7,344.0,0.00,24.4,26.6,"01:42:08",1
"17/08/01","02:00",0.0,26.4,88.7,1002.9,335.7,2.0,3.1,346.9,0.00,24.4,26.5,"01:51:52",1
"17/08/01","02:10",0.0,26.3,88.8,1002.9,332.4,1.8,3.2,321.8,0.00,24.3,26.6,"02:04:40",1
"17/08/01","02:20",0.0,26.3,88.7,1002.6,323.1,1.2,2.1,337.3,0.00,24.3,26.6,"02:13:28",1
"17/08/01","02:30",0.0,26.2,88.2,1002.9,350.3,1.0,1.9,346.6,0.00,24.1,26.6,"02:24:08",1
"17/08/01","02:40",0.0,26.2,87.8,1002.9,350.2,1.0,1.6,2.3,0.00,24.1,26.4,"02:39:20",1
"17/08/01","02:50",0.0,26.1,87.8,1002.6,344.8,1.1,1.7,357.9,0.00,24.0,26.5,"02:42:00",1
"17/08/01","03:00",0.0,26.0,88.3,1003.1,334.5,1.1,1.7,330.3,0.00,24.0,26.4,"02:51:12",1
"17/08/01","03:10",0.0,26.0,88.5,1003.1,336.2,1.2,2.4,341.4,0.00,24.0,26.6,"03:04:00",1
"17/08/01","03:20",0.0,26.1,88.4,1003.1,338.5,1.5,2.7,345.7,0.00,24.1,26.6,"03:14:00",1
"17/08/01","03:30",0.0,26.2,88.1,1003.1,331.8,1.6,2.7,344.2,0.00,24.1,26.4,"03:21:20",1
"17/08/01","03:40",0.0,26.2,88.0,1003.1,335.8,1.3,2.2,337.6,0.00,24.1,26.4,"03:31:20",1
"17/08/01","03:50",0.0,26.2,88.1,1002.9,335.5,1.1,2.2,334.2,0.00,24.1,26.4,"03:40:16",1
"17/08/01","04:00",0.0,26.1,88.1,1002.9,328.5,0.8,1.7,328.3,0.00,24.0,26.1,"03:52:32",1
"17/08/01","04:10",0.0,26.1,88.5,1003.1,330.3,1.2,2.0,343.2,0.00,24.1,26.4,"04:05:28",1
"17/08/01","04:20",0.0,26.1,88.6,1003.1,326.8,1.3,2.1,320.4,0.00,24.1,26.6,"04:11:04",1
"17/08/01","04:30",0.0,26.0,88.2,1003.1,337.1,1.2,2.2,341.0,0.00,23.9,26.4,"04:20:24",1
"17/08/01","04:40",0.0,26.1,88.2,1003.1,328.7,1.3,2.7,333.8,0.00,24.0,26.2,"04:34:16",1
"17/08/01","04:50",0.0,26.0,87.9,1002.9,336.4,1.3,1.9,346.8,0.00,23.9,26.5,"04:48:32",1
"17/08/01","05:00",0.0,25.9,88.3,1003.1,325.7,1.5,2.2,331.6,0.00,23.9,26.3,"04:50:24",1
"17/08/01","05:10",0.0,26.0,88.4,1002.9,335.1,1.5,2.4,325.0,0.00,24.0,26.4,"05:00:40",1
"17/08/01","05:20",0.0,26.0,88.5,1002.9,351.2,1.1,2.1,346.5,0.00,24.0,26.2,"05:18:32",1
"17/08/01","05:30",0.0,25.9,88.8,1002.9,345.6,1.1,1.9,332.9,0.00,23.9,26.3,"05:26:40",1
"17/08/01","05:40",0.0,25.9,88.9,1003.1,337.1,1.2,1.9,344.7,0.00,24.0,26.5,"05:39:52",1
"17/08/01","05:50",0.0,25.9,89.0,1002.9,331.7,1.6,3.2,341.6,0.00,24.0,26.3,"05:49:20",1
"17/08/01","06:00",0.0,26.0,88.9,1002.9,338.9,1.3,2.4,341.8,0.00,24.1,26.1,"05:59:04",1
"17/08/01","06:10",0.0,26.0,88.6,1003.1,333.7,1.3,2.8,331.1,0.00,24.0,26.3,"06:07:44",1
"17/08/01","06:20",0.0,26.1,88.0,1003.4,338.6,1.2,2.0,347.5,0.01,24.0,25.9,"06:13:52",1
"17/08/01","06:30",0.0,26.3,87.5,1002.9,343.8,1.1,1.7,357.5,0.01,24.1,26.0,"06:22:24",1
"17/08/01","06:40",0.0,26.3,86.8,1002.9,341.4,1.0,1.9,348.5,0.01,24.0,26.1,"06:33:36",1
"17/08/01","06:50",0.0,26.5,86.9,1002.9,340.6,1.0,2.2,343.6,0.01,24.2,26.3,"06:47:52",1
"17/08/01","07:00",0.0,26.7,86.6,1003.1,339.7,0.8,1.7,18.8,0.03,24.3,26.2,"06:50:48",1
"17/08/01","07:10",0.0,26.8,86.3,1002.9,329.2,1.1,2.1,342.1,0.02,24.4,26.2,"07:05:36",1
"17/08/01","07:20",0.0,26.8,86.3,1003.1,332.2,1.3,2.1,343.7,0.02,24.4,26.3,"07:15:20",1
"17/08/01","07:30",0.0,27.0,85.8,1002.9,336.2,1.1,2.4,342.3,0.05,24.5,26.2,"07:21:12",1
"17/08/01","07:40",0.0,27.8,83.3,1002.4,346.8,0.6,1.6,347.2,0.10,24.7,26.2,"07:33:28",1
"17/08/01","07:50",0.0,28.6,81.1,1002.6,336.9,0.8,2.7,346.7,0.16,25.1,26.3,"07:43:52",1
"17/08/01","08:00",0.0,29.3,78.2,1002.4,284.9,0.6,1.9,351.9,0.22,25.1,26.4,"07:51:12",1
"17/08/01","08:10",0.0,28.8,77.5,1001.9,190.4,0.8,1.9,195.8,0.16,24.5,26.5,"08:07:44",1
"17/08/01","08:20",0.0,28.8,80.1,1001.9,314.1,0.5,1.4,352.6,0.10,25.1,26.6,"08:13:36",1
"17/08/01","08:30",0.0,28.9,78.3,1002.2,5.7,0.6,1.3,346.7,0.07,24.8,26.7,"08:27:20",1
"17/08/01","08:40",0.0,28.6,79.1,1001.9,307.0,0.7,1.8,251.2,0.13,24.7,26.7,"08:33:44",1
"17/08/01","08:50",0.0,29.0,78.9,1001.7,337.4,1.1,2.6,343.2,0.16,25.0,26.7,"08:42:24",1
"17/08/01","09:00",0.0,29.7,77.3,1002.4,339.5,1.1,2.4,351.9,0.25,25.3,26.5,"08:55:20",1
"17/08/01","09:10",0.0,29.9,74.8,1002.2,296.3,1.0,2.8,228.9,0.26,25.0,26.7,"09:06:56",1
"17/08/01","09:20",0.0,30.6,73.9,1002.4,242.5,0.8,2.6,223.3,0.38,25.5,26.8,"09:19:20",1
"17/08/01","09:30",0.0,31.4,70.6,1002.9,193.5,1.1,2.5,234.2,0.39,25.4,26.9,"09:22:40",1
"17/08/01","09:40",0.0,31.7,67.2,1003.1,122.6,0.8,1.8,127.7,0.40,24.9,27.0,"09:35:20",1
"17/08/01","09:50",0.0,31.7,64.8,1003.6,99.8,0.7,2.1,18.6,0.33,24.3,27.2,"09:49:52",1
"17/08/01","10:00",0.0,32.3,67.3,1003.6,147.3,0.6,1.7,63.3,0.38,25.5,27.3,"09:50:08",1
"17/08/01","10:10",0.0,31.8,66.5,1004.3,253.3,0.8,3.1,343.1,0.38,24.8,27.5,"10:07:28",1
"17/08/01","10:20",0.0,32.2,66.0,1003.8,297.3,0.7,2.2,330.8,0.40,25.1,27.6,"10:10:32",1
"17/08/01","10:30",0.0,31.9,65.1,1003.6,320.4,0.8,4.0,356.9,0.30,24.6,27.7,"10:26:40",1
"17/08/01","10:40",0.0,31.4,66.5,1003.6,2.5,1.3,3.7,359.0,0.32,24.4,27.8,"10:32:48",1
"17/08/01","10:50",0.0,32.2,66.7,1003.6,277.6,1.1,2.8,337.2,0.44,25.3,28.0,"10:41:04",1
"17/08/01","11:00",0.0,32.2,64.4,1003.4,235.6,1.1,3.4,226.2,0.53,24.7,28.2,"10:56:16",1
"17/08/01","11:10",0.0,32.8,61.7,1003.8,227.5,1.0,3.1,226.0,0.49,24.5,28.2,"11:01:20",1
"17/08/01","11:20",0.0,32.5,63.5,1003.4,344.2,0.8,3.1,345.5,0.31,24.7,28.4,"11:17:20",1
"17/08/01","11:30",0.0,32.8,64.8,1003.4,267.1,0.8,2.2,345.3,0.37,25.3,28.5,"11:27:12",1
"17/08/01","11:40",0.0,33.0,63.8,1003.4,244.3,1.2,3.3,221.4,0.46,25.3,28.7,"11:33:20",1
"17/08/01","11:50",0.0,33.4,60.6,1003.4,281.9,1.2,3.4,338.3,0.46,24.8,28.9,"11:40:02",1
"17/08/01","12:00",0.0,32.3,63.8,1003.1,291.2,1.5,5.0,223.5,0.29,24.6,29.0,"11:55:44",1
"17/08/01","12:10",0.0,31.8,64.4,1002.9,330.4,1.6,3.4,350.4,0.17,24.3,28.8,"12:06:00",1
"17/08/01","12:20",0.0,32.0,63.4,1002.2,348.9,1.6,4.0,295.9,0.23,24.2,28.7,"12:13:36",1
"17/08/01","12:30",0.0,32.0,66.3,1002.4,356.1,1.6,4.8,11.1,0.30,25.0,28.8,"12:25:36",1
"17/08/01","12:40",0.0,32.9,64.7,1002.6,20.8,2.0,4.0,70.0,0.62,25.4,28.9,"12:37:52",1
"17/08/01","12:50",0.0,33.5,61.9,1002.4,17.4,2.1,4.1,341.2,0.63,25.2,29.2,"12:44:08",1
"17/08/01","13:00",0.0,33.0,61.4,1002.4,18.3,2.2,4.0,353.0,0.57,24.6,29.1,"12:50:32",1
"17/08/01","13:10",0.0,32.4,64.9,1002.6,20.7,2.0,3.7,14.1,0.38,25.0,29.3,"13:00:40",1
"17/08/01","13:20",0.0,33.6,62.3,1002.4,30.0,1.8,4.0,16.4,0.60,25.4,29.2,"13:11:12",1
"17/08/01","13:30",0.0,33.2,60.4,1002.6,358.8,1.8,4.9,352.1,0.49,24.5,29.4,"13:26:32",1
"17/08/01","13:40",0.0,32.6,63.5,1002.2,354.9,2.2,4.1,353.3,0.36,24.8,29.4,"13:38:48",1
"17/08/01","13:50",0.0,33.3,58.8,1001.9,19.1,2.1,4.4,358.3,0.48,24.2,29.3,"13:49:52",1
"17/08/01","14:00",0.0,32.9,59.8,1002.2,350.7,2.5,5.0,347.2,0.43,24.1,29.7,"13:57:44",1
"17/08/01","14:10",0.0,31.5,63.7,1001.7,344.2,2.7,5.4,350.9,0.18,23.8,29.4,"14:00:16",1
"17/08/01","14:20",0.0,32.6,60.7,1001.7,344.6,2.2,4.5,339.3,0.35,24.1,29.4,"14:12:40",1
"17/08/01","14:30",0.0,32.6,58.8,1001.2,354.6,2.6,5.5,351.6,0.44,23.5,29.6,"14:25:28",1
"17/08/01","14:40",0.0,32.0,61.2,1001.2,1.8,2.3,6.2,328.3,0.29,23.6,29.4,"14:32:08",1
"17/08/01","14:50",0.0,32.0,61.9,1001.0,4.0,2.5,5.1,352.3,0.24,23.8,29.3,"14:49:52",1
"17/08/01","15:00",0.0,32.4,62.1,1000.8,7.0,2.5,5.1,318.0,0.32,24.2,29.3,"14:50:24",1
"17/08/01","15:10",0.0,31.4,59.7,1001.0,5.2,2.3,5.9,45.1,0.16,22.7,29.2,"15:06:40",1
"17/08/01","15:20",0.0,31.8,58.8,1000.8,350.3,2.2,5.2,333.7,0.25,22.8,29.3,"15:17:52",1
"17/08/01","15:30",0.0,31.2,59.6,1000.8,6.4,2.1,3.9,28.9,0.18,22.4,29.2,"15:24:08",1
"17/08/01","15:40",0.0,32.3,55.6,1000.8,5.1,2.1,4.4,328.7,0.33,22.3,29.2,"15:33:52",1
"17/08/01","15:50",0.0,31.6,56.6,1001.0,354.6,2.8,6.3,347.6,0.28,22.0,29.1,"15:48:48",1
"17/08/01","16:00",0.0,31.3,58.8,1000.8,350.4,2.5,4.9,354.5,0.23,22.3,29.3,"15:56:00",1
"17/08/01","16:10",0.0,31.5,56.8,1000.8,342.1,2.8,5.6,351.5,0.29,21.9,29.2,"16:04:08",1
"17/08/01","16:20",0.0,31.8,56.8,1000.8,346.1,2.3,5.6,356.7,0.28,22.2,29.0,"16:12:40",1
"17/08/01","16:30",0.0,31.9,56.7,1000.8,347.3,2.1,4.1,334.5,0.27,22.3,29.2,"16:23:36",1
"17/08/01","16:40",0.0,32.4,54.4,1000.8,347.7,1.7,4.1,353.4,0.29,22.1,29.2,"16:39:52",1
"17/08/01","16:50",0.0,32.0,54.9,1001.0,342.4,1.7,4.2,342.2,0.25,21.8,29.3,"16:43:28",1
"17/08/01","17:00",0.0,32.1,56.6,1001.0,356.9,1.7,3.6,19.8,0.25,22.4,29.0,"16:58:40",1
"17/08/01","17:10",0.0,32.5,53.4,1001.0,3.8,1.7,3.2,28.0,0.20,21.8,29.3,"17:05:52",1
"17/08/01","17:20",0.0,32.2,53.4,1001.2,15.3,1.6,3.4,24.3,0.16,21.6,29.1,"17:19:12",1
"17/08/01","17:30",0.0,31.5,55.3,1000.8,16.3,1.8,4.2,15.0,0.12,21.5,29.1,"17:23:12",1
"17/08/01","17:40",0.0,31.3,57.5,1000.0,0.3,1.7,4.1,46.8,0.12,21.9,29.2,"17:31:04",1
"17/08/01","17:50",0.0,30.6,57.4,1000.5,358.3,1.7,5.9,352.2,0.05,21.3,29.0,"17:49:52",1
"17/08/01","18:00",0.0,29.7,61.6,1000.5,347.4,2.6,5.0,345.1,0.03,21.6,28.8,"17:54:32",1
"17/08/01","18:10",0.0,29.2,64.0,1000.3,347.2,2.2,4.4,302.0,0.02,21.7,28.7,"18:06:36",1
"17/08/01","18:20",0.0,29.2,63.7,999.8,336.5,2.1,3.9,342.0,0.02,21.7,28.4,"18:18:00",1
"17/08/01","18:30",0.0,28.9,64.7,1000.0,337.9,2.2,3.9,344.4,0.02,21.6,28.5,"18:25:04",1
"17/08/01","18:40",0.0,28.6,65.9,1000.0,343.9,2.0,4.8,332.8,0.00,21.6,28.3,"18:32:00",1
"17/08/01","18:50",0.0,28.4,66.5,1000.3,353.8,1.2,2.4,37.7,0.00,21.6,28.4,"18:47:28",1
"17/08/01","19:00",0.0,28.1,67.7,1000.5,343.9,1.3,5.2,332.5,0.00,21.6,28.3,"18:57:44",1
"17/08/01","19:10",0.0,27.8,70.0,1000.8,337.2,1.5,4.0,333.0,0.00,21.9,28.3,"19:01:44",1
"17/08/01","19:20",0.0,27.4,70.6,1000.8,325.4,1.8,3.5,336.2,0.00,21.6,28.0,"19:14:16",1
"17/08/01","19:30",0.0,27.2,71.7,1001.0,340.3,1.6,2.8,310.9,0.00,21.7,28.0,"19:22:08",1
"17/08/01","19:40",0.0,27.0,72.1,1000.8,330.0,1.8,4.4,330.9,0.00,21.6,27.9,"19:37:20",1
"17/08/01","19:50",0.0,26.9,72.1,1001.0,329.6,2.1,3.6,339.0,0.00,21.5,27.7,"19:47:20",1
"17/08/01","20:00",0.0,26.9,71.9,1001.2,318.3,1.7,2.7,336.9,0.00,21.4,27.8,"19:51:44",1
"17/08/01","20:10",0.0,26.7,73.0,1001.2,319.6,1.5,2.9,339.6,0.00,21.5,27.7,"20:06:08",1
"17/08/01","20:20",0.0,26.5,73.4,1001.2,333.5,1.2,2.2,337.3,0.00,21.4,27.5,"20:16:48",1
"17/08/01","20:30",0.0,26.4,74.9,1001.2,351.3,1.2,2.8,338.5,0.00,21.6,27.6,"20:26:32",1
"17/08/01","20:40",0.0,25.9,77.0,1001.5,343.3,1.3,2.8,335.9,0.00,21.6,27.2,"20:39:28",1
"17/08/01","20:50",0.0,25.8,78.0,1001.5,341.0,1.2,2.2,343.1,0.00,21.7,27.2,"20:41:36",1
"17/08/01","21:00",0.0,25.8,78.3,1001.7,332.8,1.0,2.0,311.0,0.00,21.8,27.1,"20:59:36",1
"17/08/01","21:10",0.0,25.7,78.2,1001.5,321.1,1.1,2.1,317.9,0.00,21.7,27.2,"21:06:56",1
"17/08/01","21:20",0.0,25.7,77.9,1002.2,320.5,1.1,2.8,342.4,0.00,21.6,27.1,"21:13:44",1
"17/08/01","21:30",0.0,25.7,77.5,1001.7,296.5,0.8,1.7,321.1,0.00,21.5,27.1,"21:25:28",1
"17/08/01","21:40",0.0,25.8,77.4,1002.2,330.4,1.5,3.4,332.7,0.00,21.6,26.9,"21:34:48",1
"17/08/01","21:50",0.0,25.8,77.3,1001.9,334.4,1.5,2.9,341.1,0.00,21.6,27.0,"21:44:56",1
"17/08/01","22:00",0.0,25.8,77.1,1002.2,327.1,1.3,2.6,331.3,0.00,21.5,26.9,"21:59:44",1
"17/08/01","22:10",0.0,25.9,77.4,1001.9,329.2,1.0,2.5,332.0,0.00,21.7,26.7,"22:04:32",1
"17/08/01","22:20",0.0,25.6,78.4,1002.2,294.1,0.7,1.6,337.9,0.00,21.6,26.6,"22:12:40",1
"17/08/01","22:30",0.0,25.3,80.1,1001.9,330.9,1.0,1.8,307.6,0.00,21.7,26.7,"22:22:16",1
"17/08/01","22:40",0.0,25.0,81.7,1001.9,330.6,0.8,1.3,7.5,0.00,21.7,26.6,"22:32:48",1
"17/08/01","22:50",0.0,24.7,83.1,1001.9,339.8,1.0,1.4,340.7,0.00,21.7,26.4,"22:47:04",1
"17/08/01","23:00",0.0,24.5,83.9,1001.9,305.5,0.7,1.6,342.3,0.00,21.6,26.5,"22:52:00",1
"17/08/01","23:10",0.0,24.4,84.5,1001.9,15.5,0.3,1.6,301.3,0.00,21.7,26.5,"23:09:52",1
"17/08/01","23:20",0.0,24.1,85.6,1001.9,337.8,1.2,1.7,349.8,0.00,21.6,26.3,"23:17:12",1
"17/08/01","23:30",0.0,24.0,86.1,1001.9,338.4,1.0,1.4,336.4,0.00,21.6,26.2,"23:20:48",1
"17/08/01","23:40",0.0,24.0,86.3,1001.9,328.9,1.2,1.8,339.1,0.00,21.6,26.4,"23:35:04",1
"17/08/01","23:50",0.0,24.2,86.1,1002.2,323.7,1.1,1.7,338.2,0.00,21.8,26.1,"23:48:56",1
"17/08/01","24:00",0.0,24.3,85.8,1001.7,334.4,1.2,2.0,358.7,0.00,21.8,26.2,"23:54:00",1
